Time,TemperatureF,DewpointF,PressureIn,WindDirection,WindDirectionDegrees,WindSpeedMPH,WindSpeedGustMPH,Humidity,HourlyPrecipIn,Conditions,Clouds,dailyrainin,SoftwareType,DateUTC
2013-06-18 00:00:00,75.6,69.7,29.91,SE,141,0.0,0.0,82,0.00,,---,0.00,VWS V14.01,2013-06-18 04:00:00,
2013-06-18 00:01:00,75.6,69.7,29.90,SE,143,0.0,0.0,82,0.00,,---,0.00,VWS V14.01,2013-06-18 04:01:00,
2013-06-18 00:05:00,76.5,69.1,29.91,SE,134,0.0,0.0,78,0.00,,---,0.00,VWS V14.01,2013-06-18 04:05:00,
2013-06-18 00:06:00,75.6,70.1,29.90,SE,143,0.0,0.0,83,0.00,,---,0.00,VWS V14.01,2013-06-18 04:06:00,
2013-06-18 00:10:00,76.5,69.5,29.91,SSE,164,0.0,5.0,79,0.00,,---,0.00,VWS V14.01,2013-06-18 04:10:00,
2013-06-18 00:11:00,75.6,70.1,29.90,SE,143,0.0,0.0,83,0.00,,---,0.00,VWS V14.01,2013-06-18 04:11:00,
2013-06-18 00:15:00,76.5,69.9,29.91,SE,138,0.0,1.0,80,0.00,,---,0.00,VWS V14.01,2013-06-18 04:15:00,
2013-06-18 00:16:00,75.6,70.4,29.90,SE,143,0.0,0.0,84,0.00,,---,0.00,VWS V14.01,2013-06-18 04:16:00,
2013-06-18 00:20:00,76.3,70.1,29.91,SSE,151,2.0,2.0,81,0.00,,---,0.00,VWS V14.01,2013-06-18 04:20:00,
2013-06-18 00:21:00,75.4,70.6,29.90,SE,143,0.0,0.0,85,0.00,,---,0.00,VWS V14.01,2013-06-18 04:21:00,
2013-06-18 00:25:00,76.1,69.8,29.91,SSE,147,0.0,3.0,81,0.00,,---,0.00,VWS V14.01,2013-06-18 04:25:00,
2013-06-18 00:26:00,75.3,70.8,29.90,SE,143,0.0,0.0,86,0.00,,---,0.00,VWS V14.01,2013-06-18 04:26:00,
2013-06-18 00:30:00,76.0,69.8,29.91,SSE,148,0.0,0.0,81,0.00,,---,0.00,VWS V14.01,2013-06-18 04:30:00,
2013-06-18 00:31:00,75.1,70.6,29.90,SE,143,0.0,0.0,86,0.00,,---,0.00,VWS V14.01,2013-06-18 04:31:00,
2013-06-18 00:35:00,76.0,70.1,29.91,South,169,0.0,0.0,82,0.00,,---,0.00,VWS V14.01,2013-06-18 04:35:00,
2013-06-18 00:36:00,74.9,70.8,29.90,SE,143,0.0,0.0,87,0.00,,---,0.00,VWS V14.01,2013-06-18 04:36:00,
2013-06-18 00:40:00,76.0,70.1,29.91,SE,145,0.0,1.0,82,0.00,,---,0.00,VWS V14.01,2013-06-18 04:40:00,
2013-06-18 00:41:00,74.7,70.9,29.90,SE,143,0.0,0.0,88,0.00,,---,0.00,VWS V14.01,2013-06-18 04:41:00,
2013-06-18 00:45:00,75.8,69.9,29.91,SE,144,0.0,0.0,82,0.00,,---,0.00,VWS V14.01,2013-06-18 04:45:00,
2013-06-18 00:46:00,74.6,71.2,29.90,SE,143,0.0,0.0,89,0.00,,---,0.00,VWS V14.01,2013-06-18 04:46:00,
2013-06-18 00:50:00,75.8,70.3,29.91,SE,144,0.0,0.0,83,0.00,,---,0.00,VWS V14.01,2013-06-18 04:50:00,
2013-06-18 00:51:00,74.4,70.9,29.90,SE,143,0.0,0.0,89,0.00,,---,0.00,VWS V14.01,2013-06-18 04:51:00,
2013-06-18 00:55:00,75.6,69.7,29.91,SE,144,0.0,0.0,82,0.00,,---,0.00,VWS V14.01,2013-06-18 04:55:00,
2013-06-18 00:56:00,74.2,70.8,29.90,SE,143,0.0,0.0,89,0.00,,---,0.00,VWS V14.01,2013-06-18 04:56:00,
2013-06-18 01:00:00,75.6,69.7,29.90,SE,143,0.0,0.0,82,0.00,,---,0.00,VWS V14.01,2013-06-18 05:00:00,
2013-06-18 01:01:00,74.2,70.8,29.89,SE,143,0.0,0.0,89,0.00,,---,0.00,VWS V14.01,2013-06-18 05:01:00,
2013-06-18 01:05:00,75.6,70.1,29.90,SE,143,0.0,0.0,83,0.00,,---,0.00,VWS V14.01,2013-06-18 05:05:00,
2013-06-18 01:06:00,74.0,70.6,29.89,SE,143,0.0,0.0,89,0.00,,---,0.00,VWS V14.01,2013-06-18 05:06:00,
2013-06-18 01:10:00,75.6,70.1,29.90,SE,143,0.0,0.0,83,0.00,,---,0.00,VWS V14.01,2013-06-18 05:10:00,
2013-06-18 01:11:00,74.0,70.6,29.89,SE,143,0.0,0.0,89,0.00,,---,0.00,VWS V14.01,2013-06-18 05:11:00,
2013-06-18 01:15:00,75.6,70.4,29.90,SE,143,0.0,0.0,84,0.00,,---,0.00,VWS V14.01,2013-06-18 05:15:00,
2013-06-18 01:16:00,74.0,70.9,29.88,SE,143,0.0,0.0,90,0.00,,---,0.00,VWS V14.01,2013-06-18 05:16:00,
2013-06-18 01:20:00,75.4,70.6,29.90,SE,143,0.0,0.0,85,0.00,,---,0.00,VWS V14.01,2013-06-18 05:20:00,
2013-06-18 01:21:00,73.9,70.8,29.88,SE,143,0.0,0.0,90,0.00,,---,0.00,VWS V14.01,2013-06-18 05:21:00,
2013-06-18 01:25:00,75.3,70.8,29.90,SE,143,0.0,0.0,86,0.00,,---,0.00,VWS V14.01,2013-06-18 05:25:00,
2013-06-18 01:26:00,73.9,70.8,29.88,SE,143,0.0,0.0,90,0.00,,---,0.00,VWS V14.01,2013-06-18 05:26:00,
2013-06-18 01:30:00,75.1,70.6,29.90,SE,143,0.0,0.0,86,0.00,,---,0.00,VWS V14.01,2013-06-18 05:30:00,
2013-06-18 01:31:00,73.9,70.5,29.87,SE,143,0.0,0.0,89,0.00,,---,0.00,VWS V14.01,2013-06-18 05:31:00,
2013-06-18 01:35:00,74.9,70.8,29.90,SE,143,0.0,0.0,87,0.00,,---,0.00,VWS V14.01,2013-06-18 05:35:00,
2013-06-18 01:36:00,73.7,70.3,29.87,SE,143,0.0,0.0,89,0.00,,---,0.00,VWS V14.01,2013-06-18 05:36:00,
2013-06-18 01:40:00,74.7,70.9,29.90,SE,143,0.0,0.0,88,0.00,,---,0.00,VWS V14.01,2013-06-18 05:40:00,
2013-06-18 01:41:00,73.5,70.1,29.87,SE,143,0.0,0.0,89,0.00,,---,0.00,VWS V14.01,2013-06-18 05:41:00,
2013-06-18 01:45:00,74.6,71.2,29.90,SE,143,0.0,0.0,89,0.00,,---,0.00,VWS V14.01,2013-06-18 05:45:00,
2013-06-18 01:46:00,73.5,70.1,29.87,SE,143,0.0,0.0,89,0.00,,---,0.00,VWS V14.01,2013-06-18 05:46:00,
2013-06-18 01:50:00,74.4,70.9,29.90,SE,143,0.0,0.0,89,0.00,,---,0.00,VWS V14.01,2013-06-18 05:50:00,
2013-06-18 01:51:00,73.3,69.9,29.87,SE,143,0.0,0.0,89,0.00,,---,0.00,VWS V14.01,2013-06-18 05:51:00,
2013-06-18 01:55:00,74.2,70.8,29.90,SE,143,0.0,0.0,89,0.00,,---,0.00,VWS V14.01,2013-06-18 05:55:00,
2013-06-18 01:56:00,73.2,69.8,29.87,SE,143,0.0,0.0,89,0.00,,---,0.00,VWS V14.01,2013-06-18 05:56:00,
2013-06-18 02:00:00,74.2,70.8,29.89,SE,143,0.0,0.0,89,0.00,,---,0.00,VWS V14.01,2013-06-18 06:00:00,
2013-06-18 02:01:00,73.2,69.8,29.86,SE,143,0.0,0.0,89,0.00,,---,0.00,VWS V14.01,2013-06-18 06:01:00,
2013-06-18 02:05:00,74.0,70.6,29.89,SE,143,0.0,0.0,89,0.00,,---,0.00,VWS V14.01,2013-06-18 06:05:00,
2013-06-18 02:06:00,73.0,69.6,29.86,SE,143,0.0,0.0,89,0.00,,---,0.00,VWS V14.01,2013-06-18 06:06:00,
2013-06-18 02:10:00,74.0,70.6,29.89,SE,143,0.0,0.0,89,0.00,,---,0.00,VWS V14.01,2013-06-18 06:10:00,
2013-06-18 02:11:00,72.8,69.4,29.86,SE,143,0.0,0.0,89,0.00,,---,0.00,VWS V14.01,2013-06-18 06:11:00,
2013-06-18 02:15:00,74.0,70.9,29.88,SE,143,0.0,0.0,90,0.00,,---,0.00,VWS V14.01,2013-06-18 06:15:00,
2013-06-18 02:16:00,72.7,69.3,29.85,SE,143,0.0,0.0,89,0.00,,---,0.00,VWS V14.01,2013-06-18 06:16:00,
2013-06-18 02:20:00,74.0,70.9,29.88,SE,143,0.0,0.0,90,0.00,,---,0.00,VWS V14.01,2013-06-18 06:20:00,
2013-06-18 02:21:00,72.5,69.1,29.85,SE,143,0.0,0.0,89,0.00,,---,0.00,VWS V14.01,2013-06-18 06:21:00,
2013-06-18 02:25:00,73.9,70.8,29.88,SE,143,0.0,0.0,90,0.00,,---,0.00,VWS V14.01,2013-06-18 06:25:00,
2013-06-18 02:26:00,72.3,68.9,29.85,SE,143,0.0,0.0,89,0.00,,---,0.00,VWS V14.01,2013-06-18 06:26:00,
2013-06-18 02:30:00,73.9,70.5,29.87,SE,143,0.0,0.0,89,0.00,,---,0.00,VWS V14.01,2013-06-18 06:30:00,
2013-06-18 02:31:00,72.3,68.9,29.85,SE,143,0.0,0.0,89,0.00,,---,0.00,VWS V14.01,2013-06-18 06:31:00,
2013-06-18 02:35:00,73.7,70.3,29.87,SE,143,0.0,0.0,89,0.00,,---,0.00,VWS V14.01,2013-06-18 06:35:00,
2013-06-18 02:36:00,72.1,68.7,29.85,SE,143,0.0,0.0,89,0.00,,---,0.00,VWS V14.01,2013-06-18 06:36:00,
2013-06-18 02:40:00,73.5,70.1,29.87,SE,143,0.0,0.0,89,0.00,,---,0.00,VWS V14.01,2013-06-18 06:40:00,
2013-06-18 02:41:00,72.0,68.9,29.85,SE,143,0.0,0.0,90,0.00,,---,0.00,VWS V14.01,2013-06-18 06:41:00,
2013-06-18 02:45:00,73.5,70.1,29.87,SE,143,0.0,0.0,89,0.00,,---,0.00,VWS V14.01,2013-06-18 06:45:00,
2013-06-18 02:46:00,71.8,68.7,29.85,SE,143,0.0,0.0,90,0.00,,---,0.00,VWS V14.01,2013-06-18 06:46:00,
2013-06-18 02:50:00,73.3,69.9,29.87,SE,143,0.0,0.0,89,0.00,,---,0.00,VWS V14.01,2013-06-18 06:50:00,
2013-06-18 02:51:00,71.8,68.4,29.85,SE,141,0.0,0.0,89,0.00,,---,0.00,VWS V14.01,2013-06-18 06:51:00,
2013-06-18 02:55:00,73.2,69.8,29.87,SE,143,0.0,0.0,89,0.00,,---,0.00,VWS V14.01,2013-06-18 06:55:00,
2013-06-18 02:56:00,71.6,68.2,29.85,ESE,113,1.0,1.0,89,0.00,,---,0.00,VWS V14.01,2013-06-18 06:56:00,
2013-06-18 03:00:00,73.2,69.8,29.86,SE,143,0.0,0.0,89,0.00,,---,0.00,VWS V14.01,2013-06-18 07:00:00,
2013-06-18 03:01:00,71.6,68.2,29.84,ESE,113,0.0,0.0,89,0.00,,---,0.00,VWS V14.01,2013-06-18 07:01:00,
2013-06-18 03:05:00,73.0,69.6,29.86,SE,143,0.0,0.0,89,0.00,,---,0.00,VWS V14.01,2013-06-18 07:05:00,
2013-06-18 03:06:00,71.6,68.2,29.84,ESE,113,0.0,0.0,89,0.00,,---,0.00,VWS V14.01,2013-06-18 07:06:00,
2013-06-18 03:10:00,72.8,69.4,29.86,SE,143,0.0,0.0,89,0.00,,---,0.00,VWS V14.01,2013-06-18 07:10:00,
2013-06-18 03:11:00,71.5,68.1,29.84,ESE,112,0.0,0.0,89,0.00,,---,0.00,VWS V14.01,2013-06-18 07:11:00,
2013-06-18 03:15:00,72.7,69.3,29.85,SE,143,0.0,0.0,89,0.00,,---,0.00,VWS V14.01,2013-06-18 07:15:00,
2013-06-18 03:16:00,71.5,67.8,29.84,ESE,116,2.0,2.0,88,0.00,,---,0.00,VWS V14.01,2013-06-18 07:16:00,
2013-06-18 03:20:00,72.5,69.1,29.85,SE,143,0.0,0.0,89,0.00,,---,0.00,VWS V14.01,2013-06-18 07:20:00,
2013-06-18 03:21:00,71.3,67.6,29.84,ESE,121,0.0,0.0,88,0.00,,---,0.00,VWS V14.01,2013-06-18 07:21:00,
2013-06-18 03:25:00,72.3,68.9,29.85,SE,143,0.0,0.0,89,0.00,,---,0.00,VWS V14.01,2013-06-18 07:25:00,
2013-06-18 03:26:00,71.3,67.6,29.84,ESE,106,0.0,2.0,88,0.00,,---,0.00,VWS V14.01,2013-06-18 07:26:00,
2013-06-18 03:30:00,72.3,68.9,29.85,SE,143,0.0,0.0,89,0.00,,---,0.00,VWS V14.01,2013-06-18 07:30:00,
2013-06-18 03:31:00,71.1,67.4,29.84,ESE,106,0.0,0.0,88,0.00,,---,0.00,VWS V14.01,2013-06-18 07:31:00,
2013-06-18 03:35:00,72.1,68.7,29.85,SE,143,0.0,0.0,89,0.00,,---,0.00,VWS V14.01,2013-06-18 07:35:00,
2013-06-18 03:36:00,71.1,67.7,29.84,ESE,106,0.0,0.0,89,0.00,,---,0.00,VWS V14.01,2013-06-18 07:36:00,
2013-06-18 03:40:00,72.0,68.9,29.85,SE,143,0.0,0.0,90,0.00,,---,0.00,VWS V14.01,2013-06-18 07:40:00,
2013-06-18 03:41:00,70.9,67.2,29.84,ESE,107,0.0,0.0,88,0.00,,---,0.00,VWS V14.01,2013-06-18 07:41:00,
2013-06-18 03:45:00,71.8,68.7,29.85,SE,143,0.0,0.0,90,0.00,,---,0.00,VWS V14.01,2013-06-18 07:45:00,
2013-06-18 03:46:00,70.9,67.5,29.84,ESE,107,0.0,0.0,89,0.00,,---,0.00,VWS V14.01,2013-06-18 07:46:00,
2013-06-18 03:50:00,71.8,68.4,29.85,SE,141,0.0,0.0,89,0.00,,---,0.00,VWS V14.01,2013-06-18 07:50:00,
2013-06-18 03:51:00,70.9,67.5,29.84,ESE,107,0.0,0.0,89,0.00,,---,0.00,VWS V14.01,2013-06-18 07:51:00,
2013-06-18 03:55:00,71.6,68.2,29.85,SE,131,0.0,0.0,89,0.00,,---,0.00,VWS V14.01,2013-06-18 07:55:00,
2013-06-18 03:56:00,70.8,67.4,29.84,ESE,107,0.0,0.0,89,0.00,,---,0.00,VWS V14.01,2013-06-18 07:56:00,
2013-06-18 04:00:00,71.6,68.2,29.84,ESE,113,0.0,1.0,89,0.00,,---,0.00,VWS V14.01,2013-06-18 08:00:00,
2013-06-18 04:01:00,70.8,67.4,29.83,ESE,107,0.0,0.0,89,0.00,,---,0.00,VWS V14.01,2013-06-18 08:01:00,
2013-06-18 04:05:00,71.6,68.2,29.84,ESE,113,0.0,0.0,89,0.00,,---,0.00,VWS V14.01,2013-06-18 08:05:00,
2013-06-18 04:06:00,70.6,67.2,29.83,ESE,107,0.0,0.0,89,0.00,,---,0.00,VWS V14.01,2013-06-18 08:06:00,
2013-06-18 04:10:00,71.5,68.1,29.84,ESE,112,0.0,0.0,89,0.00,,---,0.00,VWS V14.01,2013-06-18 08:10:00,
2013-06-18 04:11:00,70.6,67.2,29.83,ESE,109,0.0,0.0,89,0.00,,---,0.00,VWS V14.01,2013-06-18 08:11:00,
2013-06-18 04:15:00,71.5,67.8,29.84,ESE,116,2.0,2.0,88,0.00,,---,0.00,VWS V14.01,2013-06-18 08:15:00,
2013-06-18 04:16:00,70.6,67.2,29.83,ESE,109,0.0,0.0,89,0.00,,---,0.00,VWS V14.01,2013-06-18 08:16:00,
2013-06-18 04:20:00,71.3,67.6,29.84,ESE,121,0.0,4.0,88,0.00,,---,0.00,VWS V14.01,2013-06-18 08:20:00,
2013-06-18 04:21:00,70.4,67.0,29.83,ESE,109,0.0,0.0,89,0.00,,---,0.00,VWS V14.01,2013-06-18 08:21:00,
2013-06-18 04:25:00,71.3,67.6,29.84,ESE,106,0.0,2.0,88,0.00,,---,0.00,VWS V14.01,2013-06-18 08:25:00,
2013-06-18 04:26:00,70.4,67.0,29.83,ESE,109,0.0,0.0,89,0.00,,---,0.00,VWS V14.01,2013-06-18 08:26:00,
2013-06-18 04:30:00,71.1,67.4,29.84,ESE,106,0.0,0.0,88,0.00,,---,0.00,VWS V14.01,2013-06-18 08:30:00,
2013-06-18 04:31:00,70.4,67.0,29.83,ESE,109,0.0,0.0,89,0.00,,---,0.00,VWS V14.01,2013-06-18 08:31:00,
2013-06-18 04:35:00,71.1,67.7,29.84,ESE,106,0.0,0.0,89,0.00,,---,0.00,VWS V14.01,2013-06-18 08:35:00,
2013-06-18 04:36:00,70.3,66.9,29.83,ESE,109,0.0,0.0,89,0.00,,---,0.00,VWS V14.01,2013-06-18 08:36:00,
2013-06-18 04:40:00,70.9,67.2,29.84,ESE,107,0.0,0.0,88,0.00,,---,0.00,VWS V14.01,2013-06-18 08:40:00,
2013-06-18 04:41:00,70.3,67.2,29.83,ESE,109,0.0,0.0,90,0.00,,---,0.00,VWS V14.01,2013-06-18 08:41:00,
2013-06-18 04:45:00,70.9,67.5,29.84,ESE,107,0.0,0.0,89,0.00,,---,0.00,VWS V14.01,2013-06-18 08:45:00,
2013-06-18 04:46:00,70.3,67.2,29.83,ESE,109,0.0,0.0,90,0.00,,---,0.00,VWS V14.01,2013-06-18 08:46:00,
2013-06-18 04:50:00,70.9,67.5,29.84,ESE,107,0.0,0.0,89,0.00,,---,0.00,VWS V14.01,2013-06-18 08:50:00,
2013-06-18 04:51:00,70.3,67.2,29.83,ESE,107,0.0,0.0,90,0.00,,---,0.00,VWS V14.01,2013-06-18 08:51:00,
2013-06-18 04:55:00,70.8,67.4,29.84,ESE,107,0.0,0.0,89,0.00,,---,0.00,VWS V14.01,2013-06-18 08:55:00,
2013-06-18 04:56:00,70.1,67.0,29.83,SSE,150,0.0,0.0,90,0.00,,---,0.00,VWS V14.01,2013-06-18 08:56:00,
2013-06-18 05:00:00,70.8,67.4,29.83,ESE,107,0.0,0.0,89,0.00,,---,0.00,VWS V14.01,2013-06-18 09:00:00,
2013-06-18 05:01:00,70.1,67.0,29.83,SE,145,0.0,0.0,90,0.00,,---,0.00,VWS V14.01,2013-06-18 09:01:00,
2013-06-18 05:05:00,70.6,67.2,29.83,ESE,107,0.0,0.0,89,0.00,,---,0.00,VWS V14.01,2013-06-18 09:05:00,
2013-06-18 05:06:00,70.1,67.0,29.83,SE,144,0.0,0.0,90,0.00,,---,0.00,VWS V14.01,2013-06-18 09:06:00,
2013-06-18 05:10:00,70.6,67.2,29.83,ESE,109,0.0,0.0,89,0.00,,---,0.00,VWS V14.01,2013-06-18 09:10:00,
2013-06-18 05:11:00,70.1,67.0,29.83,SE,144,0.0,0.0,90,0.00,,---,0.00,VWS V14.01,2013-06-18 09:11:00,
2013-06-18 05:15:00,70.6,67.2,29.83,ESE,109,0.0,0.0,89,0.00,,---,0.00,VWS V14.01,2013-06-18 09:15:00,
2013-06-18 05:16:00,70.1,67.0,29.84,ESE,104,0.0,5.0,90,0.00,,---,0.00,VWS V14.01,2013-06-18 09:16:00,
2013-06-18 05:20:00,70.4,67.0,29.83,ESE,109,0.0,0.0,89,0.00,,---,0.00,VWS V14.01,2013-06-18 09:20:00,
2013-06-18 05:21:00,70.3,67.6,29.84,ESE,104,0.0,0.0,91,0.00,,---,0.00,VWS V14.01,2013-06-18 09:21:00,
2013-06-18 05:25:00,70.4,67.0,29.83,ESE,109,0.0,0.0,89,0.00,,---,0.00,VWS V14.01,2013-06-18 09:25:00,
2013-06-18 05:26:00,70.3,67.6,29.84,ESE,104,0.0,0.0,91,0.00,,---,0.00,VWS V14.01,2013-06-18 09:26:00,
2013-06-18 05:30:00,70.4,67.0,29.83,ESE,109,0.0,0.0,89,0.00,,---,0.00,VWS V14.01,2013-06-18 09:30:00,
2013-06-18 05:31:00,70.4,67.7,29.84,East,95,0.0,4.0,91,0.00,,---,0.00,VWS V14.01,2013-06-18 09:31:00,
2013-06-18 05:35:00,70.3,66.9,29.83,ESE,109,0.0,0.0,89,0.00,,---,0.00,VWS V14.01,2013-06-18 09:35:00,
2013-06-18 05:36:00,70.6,67.5,29.84,East,95,0.0,0.0,90,0.00,,---,0.00,VWS V14.01,2013-06-18 09:36:00,
2013-06-18 05:40:00,70.3,67.2,29.83,ESE,109,0.0,0.0,90,0.00,,---,0.00,VWS V14.01,2013-06-18 09:40:00,
2013-06-18 05:41:00,70.6,67.5,29.84,East,96,0.0,0.0,90,0.00,,---,0.00,VWS V14.01,2013-06-18 09:41:00,
2013-06-18 05:45:00,70.3,67.2,29.83,ESE,107,0.0,0.0,90,0.00,,---,0.00,VWS V14.01,2013-06-18 09:45:00,
2013-06-18 05:46:00,70.8,67.7,29.84,SSW,193,0.0,0.0,90,0.00,,---,0.00,VWS V14.01,2013-06-18 09:46:00,
2013-06-18 05:50:00,70.3,67.2,29.83,ESE,107,0.0,0.0,90,0.00,,---,0.00,VWS V14.01,2013-06-18 09:50:00,
2013-06-18 05:51:00,70.8,67.7,29.84,SSE,154,0.0,0.0,90,0.00,,---,0.00,VWS V14.01,2013-06-18 09:51:00,
2013-06-18 05:55:00,70.1,67.0,29.83,SSE,150,0.0,0.0,90,0.00,,---,0.00,VWS V14.01,2013-06-18 09:55:00,
2013-06-18 05:56:00,70.9,67.5,29.84,East,89,0.0,2.0,89,0.00,,---,0.00,VWS V14.01,2013-06-18 09:56:00,
2013-06-18 06:00:00,70.1,67.0,29.83,SE,145,0.0,0.0,90,0.00,,---,0.00,VWS V14.01,2013-06-18 10:00:00,
2013-06-18 06:01:00,70.9,67.5,29.84,ESE,117,0.0,6.0,89,0.00,,---,0.00,VWS V14.01,2013-06-18 10:01:00,
2013-06-18 06:05:00,70.1,67.0,29.83,SE,144,0.0,0.0,90,0.00,,---,0.00,VWS V14.01,2013-06-18 10:05:00,
2013-06-18 06:06:00,70.9,67.5,29.84,ESE,106,0.0,3.0,89,0.00,,---,0.00,VWS V14.01,2013-06-18 10:06:00,
2013-06-18 06:10:00,70.1,67.0,29.83,SE,144,0.0,0.0,90,0.00,,---,0.00,VWS V14.01,2013-06-18 10:10:00,
2013-06-18 06:11:00,70.9,67.5,29.84,ESE,103,0.0,3.0,89,0.00,,---,0.00,VWS V14.01,2013-06-18 10:11:00,
2013-06-18 06:15:00,70.1,67.0,29.84,ESE,104,0.0,5.0,90,0.00,,---,0.00,VWS V14.01,2013-06-18 10:15:00,
2013-06-18 06:16:00,71.1,67.7,29.84,SE,145,0.0,2.0,89,0.00,,---,0.00,VWS V14.01,2013-06-18 10:16:00,
2013-06-18 06:20:00,70.3,67.6,29.84,ESE,104,0.0,0.0,91,0.00,,---,0.00,VWS V14.01,2013-06-18 10:20:00,
2013-06-18 06:21:00,71.1,67.7,29.84,SE,143,0.0,0.0,89,0.00,,---,0.00,VWS V14.01,2013-06-18 10:21:00,
2013-06-18 06:25:00,70.3,67.6,29.84,ESE,104,0.0,0.0,91,0.00,,---,0.00,VWS V14.01,2013-06-18 10:25:00,
2013-06-18 06:26:00,71.1,67.7,29.84,SE,143,0.0,0.0,89,0.00,,---,0.00,VWS V14.01,2013-06-18 10:26:00,
2013-06-18 06:30:00,70.4,67.7,29.84,East,95,0.0,4.0,91,0.00,,---,0.00,VWS V14.01,2013-06-18 10:30:00,
2013-06-18 06:31:00,71.3,67.9,29.84,SE,143,0.0,0.0,89,0.00,,---,0.00,VWS V14.01,2013-06-18 10:31:00,
2013-06-18 06:35:00,70.6,67.5,29.84,East,95,0.0,0.0,90,0.00,,---,0.00,VWS V14.01,2013-06-18 10:35:00,
2013-06-18 06:36:00,71.3,67.9,29.84,SE,143,0.0,0.0,89,0.00,,---,0.00,VWS V14.01,2013-06-18 10:36:00,
2013-06-18 06:40:00,70.6,67.5,29.84,East,96,0.0,0.0,90,0.00,,---,0.00,VWS V14.01,2013-06-18 10:40:00,
2013-06-18 06:41:00,71.3,67.9,29.84,SE,143,0.0,0.0,89,0.00,,---,0.00,VWS V14.01,2013-06-18 10:41:00,
2013-06-18 06:45:00,70.8,67.7,29.84,SSE,158,0.0,0.0,90,0.00,,---,0.00,VWS V14.01,2013-06-18 10:45:00,
2013-06-18 06:46:00,71.5,68.1,29.85,SSE,148,0.0,1.0,89,0.00,,---,0.00,VWS V14.01,2013-06-18 10:46:00,
2013-06-18 06:50:00,70.8,67.7,29.84,SSE,154,0.0,0.0,90,0.00,,---,0.00,VWS V14.01,2013-06-18 10:50:00,
2013-06-18 06:51:00,71.5,68.1,29.85,SSE,148,0.0,0.0,89,0.00,,---,0.00,VWS V14.01,2013-06-18 10:51:00,
2013-06-18 06:55:00,70.9,67.5,29.84,East,89,0.0,2.0,89,0.00,,---,0.00,VWS V14.01,2013-06-18 10:55:00,
2013-06-18 06:56:00,71.5,68.1,29.85,SE,126,0.0,5.0,89,0.00,,---,0.00,VWS V14.01,2013-06-18 10:56:00,
2013-06-18 07:00:00,70.9,67.5,29.84,ESE,117,0.0,6.0,89,0.00,,---,0.00,VWS V14.01,2013-06-18 11:00:00,
2013-06-18 07:01:00,71.6,68.2,29.85,ESE,107,0.0,2.0,89,0.00,,---,0.00,VWS V14.01,2013-06-18 11:01:00,
2013-06-18 07:05:00,70.9,67.5,29.84,ESE,106,0.0,3.0,89,0.00,,---,0.00,VWS V14.01,2013-06-18 11:05:00,
2013-06-18 07:06:00,71.6,68.2,29.85,SE,141,0.0,0.0,89,0.00,,---,0.00,VWS V14.01,2013-06-18 11:06:00,
2013-06-18 07:10:00,70.9,67.5,29.84,ESE,103,0.0,3.0,89,0.00,,---,0.00,VWS V14.01,2013-06-18 11:10:00,
2013-06-18 07:11:00,71.8,68.1,29.85,ESE,121,0.0,2.0,88,0.00,,---,0.00,VWS V14.01,2013-06-18 11:11:00,
2013-06-18 07:15:00,71.1,67.7,29.84,SE,145,0.0,2.0,89,0.00,,---,0.00,VWS V14.01,2013-06-18 11:15:00,
2013-06-18 07:16:00,71.8,68.1,29.85,SE,131,0.0,0.0,88,0.00,,---,0.00,VWS V14.01,2013-06-18 11:16:00,
2013-06-18 07:20:00,71.1,67.7,29.84,SE,143,0.0,0.0,89,0.00,,---,0.00,VWS V14.01,2013-06-18 11:20:00,
2013-06-18 07:21:00,72.0,68.6,29.85,SE,131,0.0,0.0,89,0.00,,---,0.00,VWS V14.01,2013-06-18 11:21:00,
2013-06-18 07:25:00,71.1,67.7,29.84,SE,143,0.0,0.0,89,0.00,,---,0.00,VWS V14.01,2013-06-18 11:25:00,
2013-06-18 07:26:00,72.0,68.6,29.85,SE,126,0.0,0.0,89,0.00,,---,0.00,VWS V14.01,2013-06-18 11:26:00,
2013-06-18 07:30:00,71.3,67.9,29.84,SE,143,0.0,0.0,89,0.00,,---,0.00,VWS V14.01,2013-06-18 11:30:00,
2013-06-18 07:31:00,72.0,68.6,29.85,NNE,32,0.0,0.0,89,0.00,,---,0.00,VWS V14.01,2013-06-18 11:31:00,
2013-06-18 07:35:00,71.3,67.9,29.84,SE,143,0.0,0.0,89,0.00,,---,0.00,VWS V14.01,2013-06-18 11:35:00,
2013-06-18 07:36:00,72.0,68.6,29.85,ESE,109,0.0,6.0,89,0.00,,---,0.00,VWS V14.01,2013-06-18 11:36:00,
2013-06-18 07:40:00,71.3,67.9,29.84,SE,143,0.0,0.0,89,0.00,,---,0.00,VWS V14.01,2013-06-18 11:40:00,
2013-06-18 07:41:00,71.8,68.7,29.85,ESE,109,0.0,0.0,90,0.00,,---,0.00,VWS V14.01,2013-06-18 11:41:00,
2013-06-18 07:45:00,71.5,68.1,29.85,SSE,148,0.0,1.0,89,0.00,,---,0.00,VWS V14.01,2013-06-18 11:45:00,
2013-06-18 07:46:00,71.8,68.7,29.85,ESE,109,0.0,0.0,90,0.00,,---,0.00,VWS V14.01,2013-06-18 11:46:00,
2013-06-18 07:50:00,71.5,68.1,29.85,South,179,0.0,0.0,89,0.00,,---,0.00,VWS V14.01,2013-06-18 11:50:00,
2013-06-18 07:51:00,71.8,68.7,29.85,ESE,112,0.0,2.0,90,0.00,,---,0.00,VWS V14.01,2013-06-18 11:51:00,
2013-06-18 07:55:00,71.5,68.1,29.85,SE,126,0.0,5.0,89,0.00,,---,0.00,VWS V14.01,2013-06-18 11:55:00,
2013-06-18 07:56:00,71.8,68.7,29.85,ESE,110,0.0,2.0,90,0.01,,---,0.01,VWS V14.01,2013-06-18 11:56:00,
2013-06-18 08:00:00,71.6,68.2,29.85,ESE,107,0.0,2.0,89,0.00,,---,0.00,VWS V14.01,2013-06-18 12:00:00,
2013-06-18 08:01:00,71.6,68.8,29.85,ESE,114,0.0,0.0,91,0.01,,---,0.01,VWS V14.01,2013-06-18 12:01:00,
2013-06-18 08:05:00,71.6,68.2,29.85,SE,141,0.0,0.0,89,0.00,,---,0.00,VWS V14.01,2013-06-18 12:05:00,
2013-06-18 08:06:00,71.5,68.7,29.85,East,95,0.0,2.0,91,0.01,,---,0.01,VWS V14.01,2013-06-18 12:06:00,
2013-06-18 08:10:00,71.8,68.1,29.85,ESE,121,0.0,2.0,88,0.00,,---,0.00,VWS V14.01,2013-06-18 12:10:00,
2013-06-18 08:11:00,71.3,68.5,29.85,East,95,0.0,0.0,91,0.01,,---,0.01,VWS V14.01,2013-06-18 12:11:00,
2013-06-18 08:15:00,71.8,68.1,29.85,SE,131,0.0,0.0,88,0.00,,---,0.00,VWS V14.01,2013-06-18 12:15:00,
2013-06-18 08:16:00,71.3,68.9,29.85,East,95,0.0,0.0,92,0.01,,---,0.01,VWS V14.01,2013-06-18 12:16:00,
2013-06-18 08:20:00,72.0,68.6,29.85,SE,131,0.0,0.0,89,0.00,,---,0.00,VWS V14.01,2013-06-18 12:20:00,
2013-06-18 08:21:00,71.5,69.1,29.85,East,96,0.0,0.0,92,0.01,,---,0.01,VWS V14.01,2013-06-18 12:21:00,
2013-06-18 08:25:00,72.0,68.6,29.85,SE,126,0.0,0.0,89,0.00,,---,0.00,VWS V14.01,2013-06-18 12:25:00,
2013-06-18 08:26:00,71.3,68.9,29.85,East,96,0.0,2.0,92,0.01,,---,0.01,VWS V14.01,2013-06-18 12:26:00,
2013-06-18 08:30:00,72.0,68.6,29.85,NNE,32,0.0,0.0,89,0.00,,---,0.00,VWS V14.01,2013-06-18 12:30:00,
2013-06-18 08:31:00,71.3,68.9,29.84,East,96,0.0,0.0,92,0.01,,---,0.01,VWS V14.01,2013-06-18 12:31:00,
2013-06-18 08:35:00,72.0,68.6,29.85,ESE,109,0.0,6.0,89,0.00,,---,0.00,VWS V14.01,2013-06-18 12:35:00,
2013-06-18 08:36:00,71.5,69.1,29.84,East,96,0.0,0.0,92,0.01,,---,0.01,VWS V14.01,2013-06-18 12:36:00,
2013-06-18 08:40:00,71.8,68.7,29.85,ESE,109,0.0,0.0,90,0.00,,---,0.00,VWS V14.01,2013-06-18 12:40:00,
2013-06-18 08:41:00,71.5,69.4,29.84,East,96,0.0,0.0,93,0.01,,---,0.01,VWS V14.01,2013-06-18 12:41:00,
2013-06-18 08:45:00,71.8,68.7,29.85,ESE,109,0.0,0.0,90,0.00,,---,0.00,VWS V14.01,2013-06-18 12:45:00,
2013-06-18 08:46:00,71.5,69.4,29.84,East,96,0.0,0.0,93,0.01,,---,0.01,VWS V14.01,2013-06-18 12:46:00,
2013-06-18 08:50:00,71.8,68.7,29.85,ESE,112,0.0,2.0,90,0.00,,---,0.00,VWS V14.01,2013-06-18 12:50:00,
2013-06-18 08:51:00,71.5,69.7,29.84,East,96,0.0,0.0,94,0.01,,---,0.01,VWS V14.01,2013-06-18 12:51:00,
2013-06-18 08:55:00,71.8,68.7,29.85,ESE,110,0.0,2.0,90,0.01,,---,0.01,VWS V14.01,2013-06-18 12:55:00,
2013-06-18 08:56:00,71.6,70.1,29.84,East,96,0.0,0.0,95,0.01,,---,0.01,VWS V14.01,2013-06-18 12:56:00,
2013-06-18 09:00:00,71.6,68.8,29.85,ESE,114,0.0,0.0,91,0.01,,---,0.01,VWS V14.01,2013-06-18 13:00:00,
2013-06-18 09:01:00,71.6,70.4,29.85,East,96,0.0,0.0,96,0.00,,---,0.01,VWS V14.01,2013-06-18 13:01:00,
2013-06-18 09:05:00,71.5,68.7,29.85,East,95,0.0,2.0,91,0.01,,---,0.01,VWS V14.01,2013-06-18 13:05:00,
2013-06-18 09:06:00,71.8,70.6,29.85,East,95,0.0,0.0,96,0.00,,---,0.01,VWS V14.01,2013-06-18 13:06:00,
2013-06-18 09:10:00,71.8,70.6,29.85,ESE,120,3.0,3.0,96,0.00,,---,0.01,VWS V14.01,2013-06-18 13:10:00,
2013-06-18 09:15:00,71.8,70.6,29.84,ESE,121,0.0,2.0,96,0.00,,---,0.01,VWS V14.01,2013-06-18 13:15:00,
2013-06-18 09:20:00,71.8,70.6,29.84,ESE,121,0.0,0.0,96,0.00,,---,0.01,VWS V14.01,2013-06-18 13:20:00,
2013-06-18 09:25:00,71.8,70.6,29.84,ESE,117,0.0,2.0,96,0.00,,---,0.01,VWS V14.01,2013-06-18 13:25:00,
2013-06-18 09:30:00,71.3,68.9,29.84,East,96,0.0,0.0,92,0.01,,---,0.01,VWS V14.01,2013-06-18 13:30:00,
2013-06-18 09:31:00,71.8,70.6,29.83,SE,140,0.0,0.0,96,0.00,,---,0.01,VWS V14.01,2013-06-18 13:31:00,
2013-06-18 09:35:00,72.0,70.8,29.83,SE,140,0.0,0.0,96,0.00,,---,0.01,VWS V14.01,2013-06-18 13:35:00,
2013-06-18 09:40:00,72.3,71.4,29.83,SE,140,0.0,0.0,97,0.00,,---,0.01,VWS V14.01,2013-06-18 13:40:00,
2013-06-18 09:45:00,72.3,71.4,29.83,SE,138,0.0,0.0,97,0.00,,---,0.01,VWS V14.01,2013-06-18 13:45:00,
2013-06-18 09:50:00,72.3,71.4,29.83,ESE,113,0.0,1.0,97,0.00,,---,0.01,VWS V14.01,2013-06-18 13:50:00,
2013-06-18 09:55:00,72.5,71.9,29.83,ESE,112,0.0,0.0,98,0.00,,---,0.01,VWS V14.01,2013-06-18 13:55:00,
2013-06-18 10:00:00,72.5,71.9,29.83,SE,128,0.0,2.0,98,0.00,,---,0.01,VWS V14.01,2013-06-18 14:00:00,
2013-06-18 10:05:00,72.7,72.1,29.83,ESE,106,0.0,0.0,98,0.00,,---,0.01,VWS V14.01,2013-06-18 14:05:00,
2013-06-18 10:10:00,72.7,72.1,29.83,ESE,104,0.0,1.0,98,0.00,,---,0.01,VWS V14.01,2013-06-18 14:10:00,
2013-06-18 10:15:00,72.8,72.2,29.83,ESE,104,0.0,0.0,98,0.00,,---,0.01,VWS V14.01,2013-06-18 14:15:00,
2013-06-18 10:20:00,72.7,72.1,29.83,East,90,0.0,2.0,98,0.00,,---,0.01,VWS V14.01,2013-06-18 14:20:00,
2013-06-18 10:25:00,73.0,72.7,29.83,NE,49,0.0,0.0,99,0.00,,---,0.01,VWS V14.01,2013-06-18 14:25:00,
2013-06-18 10:30:00,73.2,72.9,29.83,ENE,66,0.0,2.0,99,0.00,,---,0.01,VWS V14.01,2013-06-18 14:30:00,
2013-06-18 10:35:00,73.2,72.9,29.83,ENE,66,0.0,1.0,99,0.00,,---,0.01,VWS V14.01,2013-06-18 14:35:00,
2013-06-18 10:40:00,73.3,73.0,29.83,SE,130,0.0,3.0,99,0.00,,---,0.01,VWS V14.01,2013-06-18 14:40:00,
2013-06-18 10:45:00,73.5,73.2,29.83,SE,130,0.0,0.0,99,0.00,,---,0.01,VWS V14.01,2013-06-18 14:45:00,
2013-06-18 10:50:00,73.3,73.0,29.83,ENE,76,0.0,5.0,99,0.00,,---,0.01,VWS V14.01,2013-06-18 14:50:00,
2013-06-18 10:55:00,73.5,73.2,29.83,ENE,76,0.0,0.0,99,0.00,,---,0.01,VWS V14.01,2013-06-18 14:55:00,
2013-06-18 11:00:00,73.3,73.0,29.83,ENE,59,0.0,1.0,99,0.00,,---,0.01,VWS V14.01,2013-06-18 15:00:00,
2013-06-18 11:05:00,73.2,72.9,29.83,SE,124,0.0,5.0,99,0.00,,---,0.01,VWS V14.01,2013-06-18 15:05:00,
2013-06-18 11:10:00,73.2,72.9,29.83,ESE,117,1.0,1.0,99,0.00,,---,0.01,VWS V14.01,2013-06-18 15:10:00,
2013-06-18 11:15:00,73.2,72.9,29.83,ESE,110,0.0,0.0,99,0.00,,---,0.01,VWS V14.01,2013-06-18 15:15:00,
2013-06-18 11:20:00,73.2,72.9,29.83,ESE,110,0.0,0.0,99,0.00,,---,0.01,VWS V14.01,2013-06-18 15:20:00,
2013-06-18 11:25:00,73.3,73.0,29.83,ESE,110,0.0,0.0,99,0.00,,---,0.01,VWS V14.01,2013-06-18 15:25:00,
2013-06-18 11:30:00,73.2,72.9,29.83,ESE,110,0.0,0.0,99,0.00,,---,0.01,VWS V14.01,2013-06-18 15:30:00,
2013-06-18 11:35:00,73.3,73.0,29.83,ESE,110,0.0,0.0,99,0.00,,---,0.01,VWS V14.01,2013-06-18 15:35:00,
2013-06-18 11:40:00,73.2,72.9,29.83,ESE,110,0.0,0.0,99,0.00,,---,0.01,VWS V14.01,2013-06-18 15:40:00,
2013-06-18 11:45:00,73.2,72.9,29.83,ESE,110,0.0,0.0,99,0.00,,---,0.01,VWS V14.01,2013-06-18 15:45:00,
2013-06-18 11:50:00,73.3,73.0,29.83,ESE,110,0.0,0.0,99,0.00,,---,0.01,VWS V14.01,2013-06-18 15:50:00,
2013-06-18 11:55:00,73.2,72.9,29.83,ESE,109,0.0,2.0,99,0.00,,---,0.01,VWS V14.01,2013-06-18 15:55:00,
2013-06-18 12:00:00,73.0,72.7,29.83,South,184,0.0,0.0,99,0.00,,---,0.01,VWS V14.01,2013-06-18 16:00:00,
2013-06-18 12:05:00,73.2,72.9,29.83,South,182,0.0,0.0,99,0.00,,---,0.01,VWS V14.01,2013-06-18 16:05:00,
2013-06-18 12:10:00,73.5,73.2,29.83,South,182,0.0,0.0,99,0.00,,---,0.01,VWS V14.01,2013-06-18 16:10:00,
2013-06-18 12:15:00,73.2,72.9,29.83,South,182,0.0,0.0,99,0.00,,---,0.01,VWS V14.01,2013-06-18 16:15:00,
2013-06-18 12:20:00,73.2,72.9,29.83,South,181,0.0,0.0,99,0.00,,---,0.01,VWS V14.01,2013-06-18 16:20:00,
2013-06-18 12:25:00,73.3,73.0,29.83,SSE,162,0.0,0.0,99,0.00,,---,0.01,VWS V14.01,2013-06-18 16:25:00,
2013-06-18 12:30:00,73.5,73.2,29.82,SE,143,0.0,0.0,99,0.00,,---,0.01,VWS V14.01,2013-06-18 16:30:00,
2013-06-18 12:35:00,73.7,72.8,29.82,SE,133,0.0,1.0,97,0.00,,---,0.01,VWS V14.01,2013-06-18 16:35:00,
2013-06-18 12:40:00,74.2,72.7,29.82,SE,133,0.0,0.0,95,0.00,,---,0.01,VWS V14.01,2013-06-18 16:40:00,
2013-06-18 12:45:00,74.6,71.5,29.81,East,90,1.0,3.0,90,0.00,,---,0.01,VWS V14.01,2013-06-18 16:45:00,
2013-06-18 12:50:00,74.7,70.2,29.81,East,92,0.0,2.0,86,0.00,,---,0.01,VWS V14.01,2013-06-18 16:50:00,
2013-06-18 12:55:00,74.7,70.9,29.81,East,92,0.0,0.0,88,0.00,,---,0.01,VWS V14.01,2013-06-18 16:55:00,
2013-06-18 13:00:00,75.3,70.1,29.80,SE,127,0.0,6.0,84,0.00,,---,0.01,VWS V14.01,2013-06-18 17:00:00,
2013-06-18 13:05:00,76.0,70.5,29.80,East,93,0.0,5.0,83,0.00,,---,0.01,VWS V14.01,2013-06-18 17:05:00,
2013-06-18 13:10:00,77.0,69.6,29.80,East,96,0.0,0.0,78,0.00,,---,0.01,VWS V14.01,2013-06-18 17:10:00,
2013-06-18 13:15:00,77.9,70.1,29.80,ESE,110,0.0,5.0,77,0.00,,---,0.01,VWS V14.01,2013-06-18 17:15:00,
2013-06-18 13:20:00,78.3,70.1,29.80,ESE,113,0.0,2.0,76,0.00,,---,0.01,VWS V14.01,2013-06-18 17:20:00,
2013-06-18 13:25:00,78.3,70.1,29.80,ESE,114,0.0,3.0,76,0.00,,---,0.01,VWS V14.01,2013-06-18 17:25:00,
2013-06-18 13:30:00,78.1,69.9,29.80,ESE,102,0.0,2.0,76,0.00,,---,0.01,VWS V14.01,2013-06-18 17:30:00,
2013-06-18 13:35:00,78.5,69.9,29.80,East,99,0.0,0.0,75,0.00,,---,0.01,VWS V14.01,2013-06-18 17:35:00,
2013-06-18 13:40:00,79.2,69.4,29.80,SW,224,0.0,1.0,72,0.00,,---,0.01,VWS V14.01,2013-06-18 17:40:00,
2013-06-18 13:45:00,79.9,70.1,29.80,ESE,114,0.0,6.0,72,0.00,,---,0.01,VWS V14.01,2013-06-18 17:45:00,
2013-06-18 13:50:00,80.1,69.9,29.80,NE,34,0.0,0.0,71,0.00,,---,0.01,VWS V14.01,2013-06-18 17:50:00,
2013-06-18 13:55:00,79.9,69.7,29.80,ENE,58,0.0,1.0,71,0.00,,---,0.01,VWS V14.01,2013-06-18 17:55:00,
2013-06-18 14:00:00,79.8,69.2,29.79,ENE,72,0.0,0.0,70,0.00,,---,0.01,VWS V14.01,2013-06-18 18:00:00,
2013-06-18 14:05:00,79.6,70.2,29.79,ENE,72,0.0,0.0,73,0.00,,---,0.01,VWS V14.01,2013-06-18 18:05:00,
2013-06-18 14:10:00,79.6,69.8,29.79,ENE,72,0.0,0.0,72,0.00,,---,0.01,VWS V14.01,2013-06-18 18:10:00,
2013-06-18 14:15:00,79.9,70.5,29.78,South,184,0.0,6.0,73,0.00,,---,0.01,VWS V14.01,2013-06-18 18:15:00,
2013-06-18 14:20:00,80.7,70.4,29.78,ESE,103,0.0,1.0,71,0.00,,---,0.01,VWS V14.01,2013-06-18 18:20:00,
2013-06-18 14:25:00,81.6,70.9,29.78,ESE,103,0.0,0.0,70,0.00,,---,0.01,VWS V14.01,2013-06-18 18:25:00,
2013-06-18 14:30:00,82.4,70.8,29.78,ESE,103,0.0,0.0,68,0.00,,---,0.01,VWS V14.01,2013-06-18 18:30:00,
2013-06-18 14:35:00,82.0,70.0,29.78,SSW,210,0.0,10.0,67,0.00,,---,0.01,VWS V14.01,2013-06-18 18:35:00,
2013-06-18 14:40:00,81.4,69.8,29.78,East,86,0.0,7.0,68,0.00,,---,0.01,VWS V14.01,2013-06-18 18:40:00,
2013-06-18 14:45:00,81.2,70.5,29.77,ESE,106,0.0,5.0,70,0.00,,---,0.01,VWS V14.01,2013-06-18 18:45:00,
2013-06-18 14:50:00,81.6,70.4,29.77,NNE,31,0.0,0.0,69,0.00,,---,0.01,VWS V14.01,2013-06-18 18:50:00,
2013-06-18 14:55:00,82.2,70.6,29.77,NE,35,0.0,0.0,68,0.00,,---,0.01,VWS V14.01,2013-06-18 18:55:00,
2013-06-18 15:00:00,82.8,71.2,29.75,NE,48,0.0,0.0,68,0.00,,---,0.01,VWS V14.01,2013-06-18 19:00:00,
2013-06-18 15:05:00,83.0,70.0,29.75,SE,134,0.0,7.0,65,0.00,,---,0.01,VWS V14.01,2013-06-18 19:05:00,
2013-06-18 15:10:00,82.8,69.8,29.75,SE,131,0.0,0.0,65,0.00,,---,0.01,VWS V14.01,2013-06-18 19:10:00,
2013-06-18 15:15:00,82.6,69.7,29.75,SE,136,0.0,2.0,65,0.00,,---,0.01,VWS V14.01,2013-06-18 19:15:00,
2013-06-18 15:20:00,82.4,70.3,29.75,SSE,168,0.0,6.0,67,0.00,,---,0.01,VWS V14.01,2013-06-18 19:20:00,
2013-06-18 15:25:00,82.2,71.4,29.75,ESE,113,0.0,3.0,70,0.00,,---,0.01,VWS V14.01,2013-06-18 19:25:00,
2013-06-18 15:30:00,82.2,70.6,29.75,ESE,110,0.0,0.0,68,0.00,,---,0.01,VWS V14.01,2013-06-18 19:30:00,
2013-06-18 15:35:00,82.2,70.2,29.75,SE,128,0.0,5.0,67,0.00,,---,0.01,VWS V14.01,2013-06-18 19:35:00,
2013-06-18 15:40:00,82.2,70.2,29.75,ESE,107,0.0,5.0,67,0.00,,---,0.01,VWS V14.01,2013-06-18 19:40:00,
2013-06-18 15:45:00,82.2,69.7,29.74,SE,124,0.0,1.0,66,0.00,,---,0.01,VWS V14.01,2013-06-18 19:45:00,
2013-06-18 15:50:00,82.2,71.0,29.74,SE,138,0.0,1.0,69,0.00,,---,0.01,VWS V14.01,2013-06-18 19:50:00,
2013-06-18 15:55:00,82.0,70.4,29.74,ESE,102,0.0,0.0,68,0.00,,---,0.01,VWS V14.01,2013-06-18 19:55:00,
2013-06-18 16:00:00,82.2,70.2,29.73,SE,143,0.0,1.0,67,0.00,,---,0.01,VWS V14.01,2013-06-18 20:00:00,
2013-06-18 16:05:00,82.4,70.3,29.73,ESE,123,0.0,0.0,67,0.00,,---,0.01,VWS V14.01,2013-06-18 20:05:00,
2013-06-18 16:10:00,82.8,70.7,29.73,SE,136,0.0,5.0,67,0.00,,---,0.01,VWS V14.01,2013-06-18 20:10:00,
2013-06-18 16:15:00,82.8,70.3,29.73,SE,136,0.0,0.0,66,0.00,,---,0.01,VWS V14.01,2013-06-18 20:15:00,
2013-06-18 16:20:00,82.6,70.1,29.73,ESE,120,0.0,0.0,66,0.00,,---,0.01,VWS V14.01,2013-06-18 20:20:00,
2013-06-18 16:25:00,82.8,70.7,29.73,SE,143,0.0,0.0,67,0.00,,---,0.01,VWS V14.01,2013-06-18 20:25:00,
2013-06-18 16:30:00,82.6,71.0,29.72,SSE,152,0.0,1.0,68,0.00,,---,0.01,VWS V14.01,2013-06-18 20:30:00,
2013-06-18 16:35:00,82.6,71.4,29.72,SSE,152,0.0,0.0,69,0.00,,---,0.01,VWS V14.01,2013-06-18 20:35:00,
2013-06-18 16:40:00,82.4,71.2,29.72,SE,130,0.0,8.0,69,0.00,,---,0.01,VWS V14.01,2013-06-18 20:40:00,
2013-06-18 16:45:00,82.4,69.9,29.72,ESE,117,1.0,5.0,66,0.00,,---,0.01,VWS V14.01,2013-06-18 20:45:00,
2013-06-18 16:50:00,82.6,70.5,29.72,ESE,103,0.0,1.0,67,0.00,,---,0.01,VWS V14.01,2013-06-18 20:50:00,
2013-06-18 16:55:00,82.6,70.1,29.72,SE,141,5.0,7.0,66,0.00,,---,0.01,VWS V14.01,2013-06-18 20:55:00,
2013-06-18 17:00:00,82.6,70.5,29.72,ESE,109,0.0,7.0,67,0.00,,---,0.01,VWS V14.01,2013-06-18 21:00:00,
2013-06-18 17:05:00,82.6,70.1,29.72,SSE,148,0.0,5.0,66,0.00,,---,0.01,VWS V14.01,2013-06-18 21:05:00,
2013-06-18 17:10:00,82.4,70.8,29.72,SSE,147,0.0,0.0,68,0.00,,---,0.01,VWS V14.01,2013-06-18 21:10:00,
2013-06-18 17:15:00,82.0,70.4,29.70,SSE,167,0.0,0.0,68,0.00,,---,0.01,VWS V14.01,2013-06-18 21:15:00,
2013-06-18 17:20:00,81.8,70.2,29.70,SSE,164,0.0,0.0,68,0.00,,---,0.01,VWS V14.01,2013-06-18 21:20:00,
2013-06-18 17:25:00,81.6,70.4,29.70,SSE,155,0.0,3.0,69,0.00,,---,0.01,VWS V14.01,2013-06-18 21:25:00,
2013-06-18 17:30:00,81.2,70.1,29.70,ESE,112,0.0,0.0,69,0.00,,---,0.01,VWS V14.01,2013-06-18 21:30:00,
2013-06-18 17:35:00,81.1,70.8,29.70,East,89,0.0,7.0,71,0.00,,---,0.01,VWS V14.01,2013-06-18 21:35:00,
2013-06-18 17:40:00,80.9,70.6,29.70,ESE,103,0.0,3.0,71,0.00,,---,0.01,VWS V14.01,2013-06-18 21:40:00,
2013-06-18 17:45:00,80.9,69.8,29.68,SE,124,0.0,0.0,69,0.00,,---,0.01,VWS V14.01,2013-06-18 21:45:00,
2013-06-18 17:50:00,80.9,69.8,29.68,SE,140,3.0,6.0,69,0.00,,---,0.01,VWS V14.01,2013-06-18 21:50:00,
2013-06-18 17:55:00,80.9,70.2,29.68,East,90,0.0,3.0,70,0.00,,---,0.01,VWS V14.01,2013-06-18 21:55:00,
2013-06-18 18:00:00,81.1,70.4,29.67,SSE,147,0.0,7.0,70,0.00,,---,0.01,VWS V14.01,2013-06-18 22:00:00,
2013-06-18 18:05:00,80.9,70.6,29.67,NE,42,0.0,0.0,71,0.00,,---,0.01,VWS V14.01,2013-06-18 22:05:00,
2013-06-18 18:10:00,80.5,70.2,29.67,NNE,28,0.0,0.0,71,0.00,,---,0.01,VWS V14.01,2013-06-18 22:10:00,
2013-06-18 18:15:00,79.9,69.7,29.69,NNE,13,0.0,0.0,71,0.00,,---,0.01,VWS V14.01,2013-06-18 22:15:00,
2013-06-18 18:20:00,79.4,69.6,29.69,NNE,13,0.0,0.0,72,0.00,,---,0.01,VWS V14.01,2013-06-18 22:20:00,
2013-06-18 18:25:00,79.0,70.8,29.69,NNE,13,0.0,0.0,76,0.00,,---,0.01,VWS V14.01,2013-06-18 22:25:00,
2013-06-18 18:30:00,78.8,71.4,29.69,NNE,13,0.0,0.0,78,0.00,,---,0.01,VWS V14.01,2013-06-18 22:30:00,
2013-06-18 18:35:00,78.3,71.6,29.69,NNE,13,0.0,0.0,80,0.00,,---,0.01,VWS V14.01,2013-06-18 22:35:00,
2013-06-18 18:40:00,77.6,70.9,29.69,NNE,13,0.0,0.0,80,0.00,,---,0.01,VWS V14.01,2013-06-18 22:40:00,
2013-06-18 18:45:00,77.0,71.1,29.71,North,357,0.0,3.0,82,0.00,,---,0.01,VWS V14.01,2013-06-18 22:45:00,
2013-06-18 18:50:00,76.1,71.3,29.71,NNE,21,0.0,1.0,85,0.00,,---,0.01,VWS V14.01,2013-06-18 22:50:00,
2013-06-18 18:55:00,74.2,72.4,29.71,North,357,0.0,4.0,94,0.14,,---,0.15,VWS V14.01,2013-06-18 22:55:00,
2013-06-18 19:00:00,73.7,73.1,29.72,North,6,0.0,0.0,98,0.15,,---,0.16,VWS V14.01,2013-06-18 23:00:00,
2013-06-18 19:05:00,73.3,73.0,29.72,North,0,0.0,0.0,99,0.19,,---,0.20,VWS V14.01,2013-06-18 23:05:00,
2013-06-18 19:10:00,73.0,73.0,29.72,NNE,14,0.0,0.0,100,0.21,,---,0.22,VWS V14.01,2013-06-18 23:10:00,
2013-06-18 19:15:00,72.8,72.8,29.72,North,356,0.0,3.0,100,0.24,,---,0.25,VWS V14.01,2013-06-18 23:15:00,
2013-06-18 19:20:00,72.5,72.5,29.72,North,3,0.0,6.0,100,0.24,,---,0.25,VWS V14.01,2013-06-18 23:20:00,
2013-06-18 19:25:00,72.1,72.1,29.72,North,359,0.0,2.0,100,0.24,,---,0.25,VWS V14.01,2013-06-18 23:25:00,
2013-06-18 19:30:00,71.8,71.8,29.73,North,357,0.0,0.0,100,0.24,,---,0.25,VWS V14.01,2013-06-18 23:30:00,
2013-06-18 19:35:00,71.6,71.6,29.73,North,3,0.0,0.0,100,0.24,,---,0.25,VWS V14.01,2013-06-18 23:35:00,
2013-06-18 19:40:00,71.5,71.5,29.73,North,3,0.0,0.0,100,0.24,,---,0.25,VWS V14.01,2013-06-18 23:40:00,
2013-06-18 19:45:00,71.3,71.3,29.74,North,3,0.0,0.0,100,0.25,,---,0.26,VWS V14.01,2013-06-18 23:45:00,
2013-06-18 19:50:00,71.1,71.1,29.74,North,3,0.0,0.0,100,0.25,,---,0.26,VWS V14.01,2013-06-18 23:50:00,
2013-06-18 19:55:00,71.1,71.1,29.74,North,3,0.0,0.0,100,0.23,,---,0.26,VWS V14.01,2013-06-18 23:55:00,
2013-06-18 20:00:00,70.9,70.9,29.74,North,3,0.0,0.0,100,0.11,,---,0.26,VWS V14.01,2013-06-19 00:00:00,
2013-06-18 20:05:00,70.8,70.8,29.74,North,3,0.0,0.0,100,0.11,,---,0.27,VWS V14.01,2013-06-19 00:05:00,
2013-06-18 20:10:00,70.6,70.6,29.74,North,3,0.0,0.0,100,0.07,,---,0.27,VWS V14.01,2013-06-19 00:10:00,
2013-06-18 20:15:00,70.6,70.6,29.75,North,3,0.0,0.0,100,0.05,,---,0.27,VWS V14.01,2013-06-19 00:15:00,
2013-06-18 20:20:00,70.6,70.6,29.75,North,3,0.0,0.0,100,0.02,,---,0.27,VWS V14.01,2013-06-19 00:20:00,
2013-06-18 20:25:00,70.4,70.4,29.75,North,3,0.0,0.0,100,0.02,,---,0.27,VWS V14.01,2013-06-19 00:25:00,
2013-06-18 20:30:00,70.6,70.6,29.76,North,3,0.0,0.0,100,0.03,,---,0.28,VWS V14.01,2013-06-19 00:30:00,
2013-06-18 20:35:00,70.6,70.6,29.76,North,3,0.0,0.0,100,0.03,,---,0.28,VWS V14.01,2013-06-19 00:35:00,
2013-06-18 20:40:00,70.6,70.6,29.76,North,3,0.0,0.0,100,0.03,,---,0.28,VWS V14.01,2013-06-19 00:40:00,
2013-06-18 20:45:00,70.4,70.4,29.76,North,3,0.0,0.0,100,0.03,,---,0.28,VWS V14.01,2013-06-19 00:45:00,
2013-06-18 20:50:00,70.4,70.4,29.76,North,3,0.0,0.0,100,0.02,,---,0.28,VWS V14.01,2013-06-19 00:50:00,
2013-06-18 20:55:00,70.4,70.4,29.76,North,3,0.0,0.0,100,0.02,,---,0.28,VWS V14.01,2013-06-19 00:55:00,
2013-06-18 21:00:00,70.4,70.4,29.76,North,3,0.0,0.0,100,0.02,,---,0.28,VWS V14.01,2013-06-19 01:00:00,
2013-06-18 21:05:00,70.4,70.4,29.76,North,3,0.0,0.0,100,0.02,,---,0.28,VWS V14.01,2013-06-19 01:05:00,
2013-06-18 21:10:00,70.4,70.4,29.76,North,3,0.0,0.0,100,0.01,,---,0.28,VWS V14.01,2013-06-19 01:10:00,
2013-06-18 21:15:00,70.4,70.4,29.75,North,3,0.0,0.0,100,0.01,,---,0.28,VWS V14.01,2013-06-19 01:15:00,
2013-06-18 21:20:00,70.3,70.3,29.75,North,3,0.0,0.0,100,0.01,,---,0.28,VWS V14.01,2013-06-19 01:20:00,
2013-06-18 21:25:00,70.3,70.3,29.75,North,3,0.0,0.0,100,0.01,,---,0.28,VWS V14.01,2013-06-19 01:25:00,
2013-06-18 21:30:00,70.3,70.3,29.76,North,3,0.0,0.0,100,0.01,,---,0.28,VWS V14.01,2013-06-19 01:30:00,
2013-06-18 21:35:00,70.3,70.3,29.76,North,3,0.0,0.0,100,0.00,,---,0.28,VWS V14.01,2013-06-19 01:35:00,
2013-06-18 21:40:00,70.1,70.1,29.76,North,3,0.0,0.0,100,0.00,,---,0.28,VWS V14.01,2013-06-19 01:40:00,
2013-06-18 21:45:00,70.1,70.1,29.77,North,3,0.0,0.0,100,0.00,,---,0.28,VWS V14.01,2013-06-19 01:45:00,
2013-06-18 21:50:00,70.1,70.1,29.77,North,3,0.0,0.0,100,0.00,,---,0.28,VWS V14.01,2013-06-19 01:50:00,
2013-06-18 21:55:00,70.1,70.1,29.77,North,3,0.0,0.0,100,0.00,,---,0.28,VWS V14.01,2013-06-19 01:55:00,
2013-06-18 22:00:00,70.1,70.1,29.78,North,3,0.0,0.0,100,0.00,,---,0.28,VWS V14.01,2013-06-19 02:00:00,
2013-06-18 22:05:00,70.1,70.1,29.78,North,3,0.0,0.0,100,0.00,,---,0.28,VWS V14.01,2013-06-19 02:05:00,
2013-06-18 22:10:00,69.9,69.9,29.78,North,3,0.0,0.0,100,0.00,,---,0.28,VWS V14.01,2013-06-19 02:10:00,
2013-06-18 22:15:00,69.9,69.9,29.78,North,3,0.0,0.0,100,0.00,,---,0.28,VWS V14.01,2013-06-19 02:15:00,
2013-06-18 22:20:00,69.9,69.9,29.78,North,3,0.0,0.0,100,0.00,,---,0.28,VWS V14.01,2013-06-19 02:20:00,
2013-06-18 22:25:00,69.8,69.8,29.78,North,3,0.0,0.0,100,0.00,,---,0.28,VWS V14.01,2013-06-19 02:25:00,
2013-06-18 22:30:00,69.8,69.8,29.79,North,3,0.0,0.0,100,0.00,,---,0.28,VWS V14.01,2013-06-19 02:30:00,
2013-06-18 22:35:00,69.8,69.8,29.79,North,3,0.0,0.0,100,0.00,,---,0.28,VWS V14.01,2013-06-19 02:35:00,
2013-06-18 22:40:00,69.9,69.9,29.79,North,3,0.0,0.0,100,0.00,,---,0.28,VWS V14.01,2013-06-19 02:40:00,
2013-06-18 22:45:00,69.9,69.9,29.79,North,3,0.0,0.0,100,0.00,,---,0.28,VWS V14.01,2013-06-19 02:45:00,
2013-06-18 22:50:00,69.9,69.9,29.80,North,3,0.0,0.0,100,0.00,,---,0.28,VWS V14.01,2013-06-19 02:50:00,
2013-06-18 22:55:00,69.9,69.9,29.80,North,3,0.0,0.0,100,0.00,,---,0.28,VWS V14.01,2013-06-19 02:55:00,
2013-06-18 23:00:00,69.9,69.9,29.80,North,3,0.0,0.0,100,0.01,,---,0.29,VWS V14.01,2013-06-19 03:00:00,
2013-06-18 23:05:00,69.9,69.9,29.80,North,3,0.0,0.0,100,0.01,,---,0.29,VWS V14.01,2013-06-19 03:05:00,
2013-06-18 23:10:00,69.9,69.9,29.80,North,3,0.0,0.0,100,0.01,,---,0.29,VWS V14.01,2013-06-19 03:10:00,
2013-06-18 23:15:00,69.9,69.9,29.80,North,3,0.0,0.0,100,0.01,,---,0.29,VWS V14.01,2013-06-19 03:15:00,
2013-06-18 23:20:00,69.9,69.9,29.80,North,3,0.0,0.0,100,0.01,,---,0.29,VWS V14.01,2013-06-19 03:20:00,
2013-06-18 23:25:00,69.9,69.9,29.80,North,3,0.0,0.0,100,0.01,,---,0.29,VWS V14.01,2013-06-19 03:25:00,
2013-06-18 23:30:00,69.9,69.9,29.80,North,3,0.0,0.0,100,0.01,,---,0.29,VWS V14.01,2013-06-19 03:30:00,
2013-06-18 23:35:00,69.8,69.8,29.80,North,3,0.0,0.0,100,0.01,,---,0.29,VWS V14.01,2013-06-19 03:35:00,
2013-06-18 23:40:00,69.6,69.6,29.80,North,353,0.0,3.0,100,0.01,,---,0.29,VWS V14.01,2013-06-19 03:40:00,
2013-06-18 23:45:00,69.6,69.6,29.80,WNW,291,0.0,1.0,100,0.01,,---,0.29,VWS V14.01,2013-06-19 03:45:00,
2013-06-18 23:50:00,69.4,69.4,29.81,NNE,24,0.0,1.0,100,0.01,,---,0.29,VWS V14.01,2013-06-19 03:50:00,
2013-06-18 23:55:00,69.1,69.1,29.81,WNW,302,0.0,0.0,100,0.01,,---,0.29,VWS V14.01,2013-06-19 03:55:00,